Location: Unspecified
(36.5600°N, 136.6600°E)
Time: 18:24:18
(UTC+09:00)

BlueWalker 3 - Pass Details

Date: 19 June 2024
Orbit: 480 x 491 km, 53.2° (Epoch: 19 July)

Event Time Altitude Azimuth Distance (km) Brightness Sun altitude
Rises 20:51:12 0° 240° (WSW) 2,532 5.7 -16.0°
Reaches altitude 10° 20:53:25 10° 247° (WSW) 1,653 4.8 -16.3°
Maximum altitude 20:57:01 45° 321° (NW) 665 3.0 -16.8°
Drops below altitude 10° 21:00:37 10° 35° (NE) 1,657 4.7 -17.3°
Sets 21:02:51 0° 42° (NE) 2,537 5.6 -17.6°
